Showing default

CARTOSAT 2D, 41948

Orbit data source: Space-Track

CARTOSAT 2D, 41948 is a payload satellite owned by ISRO (IN) in SSO that was launched on Wed, 15 Feb 2017 UTC via a PSLV-XL launch vehicle from the Sirharikota (SRI). Payload-class satellites include a variety of spacecraft equipped with specific instruments for various scientific and technological missions. These include communications satellites like Starlink; space stations such as the ISS; scientific satellites like the Hubble; Earth observation satellites from companies like Planet Labs, Umbra, and HawkEye 360; GPS; miniature CubeSats for education and research; and military/defense satellites.

Loading next visibility...
Identifier
41948, 2017-008A
Orbit
SSO
Country
Flag of ININ / IND
Related business
Manufacturer
ISRO
Mission
Operational Civil Imaging
Bus & Motor
IRS-2, AOCS
Mass
714 kg wet, 639 kg dry
Launch date (UTC)
2017-02-15 (9 years ago)
Launch vehicle
PSLV-XL
Launch site
Sirharikota (SRI)
Object type
Payload
Rocket body
Debris
Shape & HBR
Hex Cyl + 2 Pan, 4.0 m
Radar Cross Section
9.780 m², Large (>1 m²)

Expand to show TLE details & history
Last TLE update: 10 hours ago

TLE from 10 hours ago
0 CARTOSAT 2D
1 41948U 17008A   25258.24368139  .00007220  00000-0  34581-3 0  9995
2 41948  97.4522 317.0165 0005710 119.4086 240.7719 15.19228511475834
Epoch: 2025-09-15T05:50Z
TLE epoch observation values (Epoch: 2025-09-15T05:50:54.072Z)
Latitude
-0.00002°
Longitude
-125.15992°
Altitude
513.181 km
Speed
7.606 km/s
True Right ascension
21h 08m 03s
True Declination
0° 00' 00"
Sunlit
Object was in full shadow at epoch
Visualization orbit readout
Latitude
Unknown
Longitude
Unknown
Altitude
Unknown
Speed
Unknown
Apparent Right ascension
Unknown
Apparent Declination
Unknown
Sunlit
N/A
Visualization observer readout
Local Sidereal Time
08:02:07
Azimuth
Unknown
Elevation
Unknown
Doppler factor
Unknown
Orbital elements
Apogee altitude
509.07 km
Perigee altitude
501.209 km
Semi-major axis
6,883.277 km
Eccentricity
0.00057
Inclination
97.4522°
RAAN
317.0165°
Arg. of periapsis
119.4086°
True anomaly
240.71482°
Mean anomaly
240.7719°
Eccentric anomaly
240.74336°
Mean motion
3.80058 °/min
Orbital period
94.72 mins
BSTAR
0.00034581
Loading maneuver chart data...
Computing Atmospheric mass density...

Documentation

Showing up to 5 results
|